Wind_Speed
12 13 14 15 16 16 17 17 18 18 19 19 19 20 20 20 21 22 22 23 23 23 24 24 24 24 24 23 23 23 24 24 23 23 24 24 24 25 25 25 26 26 26
14 15 16 16 16 17 17 18 18 19 19 20 20 21 21 22 22 23 23 23 23 24 24 24 25 24 24 24 25 25 25 25 24 24 24 24 25 25 25 26 26 27 27
15 16 17 17 17 18 19 19 20 20 20 20 21 22 22 23 24 24 24 24 24 24 24 25 25 24 24 25 26 26 25 25 25 25 25 25 25 26 26 27 27 27 27
16 17 18 18 18 19 20 20 21 22 22 22 22 23 24 24 25 25 25 25 25 25 25 26 25 24 25 26 26 26 25 25 25 25 25 25 26 27 27 27 27 27 28
17 18 19 20 20 20 21 22 23 23 23 24 24 25 25 26 26 26 25 25 25 26 26 26 26 26 26 26 26 26 25 24 24 25 25 26 27 27 27 27 27 27 28
18 19 20 20 21 21 22 24 24 24 24 25 24 25 26 27 27 26 25 25 26 27 27 27 27 26 27 26 26 26 26 25 25 25 26 27 28 27 27 27 28 28 29
19 19 20 21 22 22 23 24 24 24 25 26 26 27 27 27 27 27 26 26 26 27 27 27 27 27 27 26 26 26 26 26 25 25 26 26 27 28 27 27 28 28 28
19 20 20 21 22 23 23 24 24 25 25 26 27 27 27 27 27 27 27 28 28 28 28 28 27 27 26 26 26 26 26 26 26 26 26 27 27 27 28 28 28 28 29
19 20 21 22 22 23 24 24 25 26 26 27 27 27 27 27 28 28 28 29 29 29 29 28 27 27 26 27 26 26 26 27 27 27 27 27 27 28 28 28 28 28 27
20 21 21 22 23 23 24 25 26 27 27 28 28 28 28 29 28 29 29 29 29 29 28 28 28 27 27 27 27 27 27 28 28 28 28 28 28 28 28 27 27 27 26
21 21 22 23 24 25 26 26 27 28 28 29 29 29 30 30 29 30 30 29 29 28 28 28 28 27 27 27 27 27 28 28 28 28 28 28 28 28 28 27 27 26 26
22 23 24 24 25 26 27 27 28 28 29 30 30 30 30 30 30 30 29 29 29 28 28 28 28 28 27 27 27 27 27 27 28 28 28 28 28 28 27 27 26 26 26
24 24 25 26 26 27 28 28 29 30 30 30 30 30 30 30 30 30 29 29 29 29 28 28 28 27 27 27 27 26 26 27 27 27 27 27 27 27 26 26 26 26 25
25 25 26 27 27 28 29 30 30 30 30 30 31 31 30 30 30 29 29 29 29 28 28 28 28 28 27 27 26 26 26 26 26 27 27 27 27 26 26 26 26 25 25
26 26 26 26 28 28 29 30 30 30 30 31 31 32 31 30 30 29 29 29 29 28 27 27 27 27 27 26 26 26 26 26 26 26 26 25 25 25 25 25 24 24 24
25 26 27 28 28 28 29 30 30 30 30 31 31 31 31 30 29 29 29 29 28 27 26 26 26 26 25 25 25 25 25 25 25 25 24 24 25 25 25 24 24 24 24
26 27 28 28 28 29 29 29 29 29 30 30 30 30 29 28 28 28 27 27 27 27 26 25 25 24 24 24 24 24 24 24 24 24 24 24 24 23 23 23 23 23 22
27 28 29 29 29 29 29 29 29 29 29 29 30 29 28 28 27 27 27 27 27 26 25 25 25 24 24 23 23 23 23 23 23 23 24 23 23 22 22 22 22 22 21
27 28 28 28 28 28 29 29 29 28 28 29 29 28 28 27 27 27 27 26 26 26 25 25 25 24 24 23 23 23 23 23 23 23 23 23 23 23 23 22 22 21 21
27 27 27 27 28 28 28 28 28 28 28 29 28 28 28 27 27 27 26 26 26 26 25 25 25 24 24 24 24 24 24 24 24 23 23 23 22 22 22 21 21 20 20
26 26 26 27 28 28 28 28 28 28 28 29 29 28 28 28 27 27 27 27 26 26 26 26 25 24 24 24 24 24 25 24 23 22 22 22 22 21 21 21 20 20 19
26 26 27 28 28 28 28 28 28 28 28 28 29 29 28 27 27 28 28 28 27 27 26 26 26 25 24 24 24 24 24 23 22 22 21 21 21 20 20 20 20 19 19
26 27 27 28 28 28 27 27 28 28 28 28 28 28 28 28 28 28 28 28 27 26 26 26 26 25 25 25 25 25 23 22 21 21 20 20 20 20 20 20 19 18 18
25 26 27 28 28 28 27 27 27 28 28 28 28 28 28 28 28 28 28 27 26 26 26 26 26 25 25 25 25 24 22 21 20 20 20 20 20 20 20 20 19 18 18
25 26 27 27 28 28 28 27 28 28 28 28 27 27 27 28 28 27 26 26 25 26 26 26 26 25 24 24 24 23 22 21 20 20 20 20 20 20 19 19 18 18 18
25 25 26 27 27 27 28 27 27 27 26 26 26 26 27 27 27 27 27 26 25 25 25 25 25 25 24 24 23 22 21 21 21 20 20 20 20 19 19 19 18 17 17
Wind_Direction
308 310 312 316 315 314 316 314 312 309 308 308 308 308 309 309 309 308 307 305 304 301 299 298 296 295 293 292 291 293 292 291 289 287 287 286 281 279 279 278 278 278 278
307 306 310 311 315 315 314 314 312 311 308 308 308 307 308 308 307 306 306 305 304 302 299 298 297 295 292 292 294 293 292 291 289 286 285 285 282 280 279 278 277 276 278
304 305 307 309 310 313 314 314 315 314 312 312 311 308 307 307 305 305 305 304 303 303 302 300 298 295 294 295 296 293 292 291 290 288 285 285 283 283 281 279 278 277 277
305 308 311 310 310 312 313 314 314 314 312 311 310 308 307 308 307 304 304 303 302 303 302 300 301 300 298 297 295 294 292 291 290 289 286 284 284 284 283 282 281 280 279
304 308 310 312 309 311 312 312 311 310 309 309 308 309 308 308 307 305 305 304 301 300 300 300 300 299 300 299 296 294 292 291 289 288 287 286 285 285 285 285 283 281 281
305 308 309 310 310 310 311 311 312 311 311 311 309 309 308 309 308 307 305 303 301 300 299 298 298 298 299 298 296 295 293 291 290 289 288 287 287 286 285 285 283 280 280
306 309 309 310 310 310 311 312 312 311 311 312 311 309 308 308 309 307 305 305 303 301 300 299 299 298 297 295 294 295 294 292 291 290 289 289 287 286 286 287 285 282 280
304 307 310 311 311 311 312 313 313 312 312 312 312 311 310 309 309 307 305 306 304 301 300 299 299 297 296 295 294 295 295 294 293 293 292 291 290 288 287 286 286 284 281
301 304 308 311 312 313 314 314 313 313 313 313 312 312 310 309 309 307 307 306 305 302 299 299 299 297 296 295 294 294 294 292 292 292 292 291 291 290 289 288 286 284 282
300 303 306 309 311 313 314 314 314 313 312 312 310 310 310 309 309 307 307 306 305 303 302 300 300 299 298 296 295 294 292 291 291 291 290 290 290 289 288 289 288 286 283
300 302 304 306 308 310 312 313 313 312 312 311 310 309 308 308 307 307 306 305 304 303 302 302 302 302 299 298 296 294 293 291 292 291 291 290 291 291 290 290 289 287 284
298 301 303 304 306 307 309 310 310 311 311 311 310 309 308 307 307 307 306 305 304 304 303 302 302 302 301 300 298 295 293 293 293 293 292 290 291 292 291 291 289 287 284
298 300 301 303 305 306 307 308 310 311 311 312 311 310 310 309 309 308 307 307 306 305 305 303 302 301 301 300 299 297 295 295 294 293 292 292 292 291 290 290 289 287 286
296 297 300 302 304 305 307 308 309 310 312 312 312 311 310 310 310 310 309 308 308 307 306 305 303 301 302 301 299 297 296 295 295 295 293 292 292 292 291 289 288 288 288
295 296 298 301 302 304 306 308 308 310 311 312 313 313 311 310 309 309 309 309 308 307 306 305 303 301 302 302 302 300 298 296 296 296 297 296 295 294 292 290 288 288 289
295 298 300 303 304 306 308 308 309 310 312 313 313 313 312 311 310 310 310 310 311 309 307 305 304 304 303 303 303 302 301 299 299 299 299 298 298 298 296 292 289 289 289
296 298 300 304 306 307 309 310 311 312 313 313 313 313 313 313 313 313 314 313 313 313 311 309 308 307 306 304 303 303 303 302 300 299 299 300 301 300 298 296 293 292 291
296 298 300 302 304 306 308 310 311 312 313 313 313 314 314 315 315 316 316 315 315 315 313 312 310 309 308 307 305 304 305 304 303 301 300 299 299 300 301 299 296 293 292
296 299 300 302 304 306 308 310 311 311 312 313 313 314 315 315 315 315 316 316 316 315 314 313 311 309 307 307 307 307 305 304 304 304 302 300 299 299 300 300 297 294 292
297 299 301 303 304 306 307 310 311 311 312 313 313 314 315 315 314 314 314 315 316 316 314 314 312 310 308 308 307 307 306 305 305 305 304 302 300 299 298 298 297 296 294
297 298 300 302 303 305 306 309 310 311 312 312 313 313 313 313 314 314 314 314 315 316 315 314 312 310 309 309 309 308 306 304 304 305 305 304 303 301 299 299 298 296 293
296 299 300 301 302 304 305 307 309 310 311 312 313 312 312 313 314 315 315 315 315 315 314 313 312 311 310 310 309 308 307 304 303 304 305 305 305 304 303 301 298 296 295
296 297 299 301 302 303 304 305 307 309 310 311 312 313 313 314 315 316 316 315 314 314 314 313 313 311 310 309 310 309 308 306 304 304 305 305 305 306 306 304 300 296 296
298 299 300 300 302 302 303 304 306 308 309 311 312 312 313 314 314 314 315 314 312 313 314 316 315 314 312 310 310 311 309 307 306 305 305 305 305 305 304 303 300 295 293
298 300 300 301 302 303 304 305 307 308 309 310 312 313 313 313 313 313 313 314 313 314 315 316 315 314 313 312 310 310 310 308 307 306 307 307 306 305 304 303 300 296 294
300 300 300 301 302 304 306 307 308 310 310 312 312 313 313 314 315 315 314 314 315 316 316 316 316 316 315 313 311 310 308 307 307 306 306 307 306 304 303 302 299 297 295
Height
5855 5854 5852 5850 5848 5846 5844 5842 5840 5837 5835 5833 5831 5828 5826 5824 5821 5819 5816 5814 5811 5809 5807 5805 5802 5800 5798 5796 5794 5793 5791 5790 5789 5787 5785 5784 5783 5782 5781 5781 5780 5779 5779
5853 5851 5849 5847 5845 5843 5841 5838 5836 5833 5831 5829 5826 5824 5822 5819 5816 5814 5811 5808 5806 5803 5801 5799 5796 5794 5792 5790 5788 5787 5785 5783 5782 5780 5779 5777 5776 5775 5774 5774 5773 5772 5771
5849 5848 5846 5844 5842 5839 5837 5835 5832 5830 5827 5824 5822 5819 5817 5814 5811 5808 5805 5803 5800 5797 5795 5792 5789 5787 5785 5783 5782 5780 5778 5776 5774 5773 5772 5770 5769 5768 5767 5766 5765 5764 5763
5846 5844 5843 5840 5838 5836 5833 5831 5828 5826 5823 5820 5817 5814 5811 5808 5805 5802 5799 5797 5794 5791 5789 5786 5783 5781 5779 5777 5775 5773 5771 5769 5768 5766 5764 5763 5761 5760 5759 5758 5757 5756 5756
5842 5841 5839 5836 5834 5832 5829 5827 5824 5821 5818 5815 5812 5809 5806 5803 5799 5796 5793 5790 5788 5785 5782 5780 5777 5775 5772 5770 5768 5766 5764 5762 5761 5759 5757 5756 5754 5753 5752 5751 5750 5749 5747
5838 5836 5834 5832 5830 5827 5825 5822 5819 5816 5813 5810 5806 5803 5800 5797 5793 5790 5787 5784 5781 5779 5776 5773 5770 5768 5765 5763 5761 5759 5757 5755 5754 5752 5750 5748 5747 5745 5744 5743 5742 5741 5740
5834 5832 5830 5828 5825 5823 5820 5817 5814 5811 5808 5804 5801 5798 5794 5791 5787 5784 5780 5778 5775 5772 5769 5766 5763 5761 5758 5756 5754 5752 5750 5748 5746 5745 5743 5741 5739 5738 5736 5735 5733 5732 5731
5830 5828 5825 5823 5820 5818 5815 5812 5809 5806 5802 5799 5795 5792 5788 5785 5781 5777 5774 5771 5768 5765 5762 5759 5756 5754 5751 5749 5747 5745 5742 5740 5738 5737 5735 5733 5731 5729 5728 5727 5725 5724 5723
5825 5823 5821 5818 5816 5813 5810 5807 5804 5800 5797 5793 5789 5786 5782 5778 5775 5771 5768 5764 5761 5757 5754 5751 5749 5746 5744 5741 5739 5737 5735 5733 5730 5729 5727 5725 5723 5721 5720 5718 5717 5715 5714
5821 5819 5816 5814 5811 5808 5805 5802 5798 5795 5791 5787 5784 5780 5776 5772 5768 5765 5761 5758 5754 5750 5747 5744 5741 5738 5736 5733 5731 5729 5727 5725 5723 5721 5719 5717 5715 5713 5711 5710 5708 5707 5705
5815 5813 5811 5808 5806 5803 5799 5796 5792 5789 5785 5781 5777 5773 5769 5765 5761 5758 5754 5750 5747 5743 5740 5737 5734 5731 5728 5726 5723 5721 5719 5717 5715 5713 5711 5709 5707 5705 5703 5701 5700 5698 5697
5810 5808 5805 5802 5800 5796 5793 5790 5786 5782 5779 5775 5770 5766 5762 5758 5754 5750 5746 5743 5739 5736 5732 5729 5726 5723 5720 5717 5715 5713 5711 5708 5706 5704 5702 5700 5699 5697 5695 5693 5691 5690 5689
5804 5801 5799 5796 5793 5790 5786 5783 5780 5776 5772 5768 5763 5759 5755 5750 5746 5743 5739 5735 5731 5728 5724 5721 5718 5715 5712 5710 5707 5705 5702 5700 5698 5696 5694 5692 5690 5688 5687 5685 5683 5682 5681
5797 5795 5792 5789 5786 5783 5780 5776 5773 5769 5765 5761 5756 5752 5747 5743 5739 5735 5732 5728 5724 5721 5717 5714 5711 5708 5705 5702 5700 5697 5695 5692 5690 5688 5686 5684 5682 5680 5679 5677 5675 5674 5673
5791 5789 5786 5783 5780 5776 5772 5769 5765 5762 5758 5754 5749 5745 5740 5736 5732 5728 5724 5721 5717 5714 5710 5707 5704 5701 5698 5695 5692 5690 5687 5685 5683 5681 5678 5676 5674 5672 5671 5669 5668 5666 5665
5784 5782 5779 5776 5773 5769 5766 5762 5758 5754 5751 5746 5742 5738 5733 5729 5725 5721 5717 5714 5710 5707 5703 5700 5697 5694 5691 5688 5686 5683 5680 5678 5676 5673 5671 5669 5667 5665 5663 5662 5660 5659 5658
5777 5775 5772 5769 5766 5763 5759 5755 5752 5748 5743 5739 5735 5731 5727 5722 5719 5715 5711 5707 5704 5700 5697 5693 5690 5687 5684 5682 5679 5676 5674 5671 5669 5667 5664 5662 5660 5658 5656 5654 5653 5652 5650
5770 5768 5765 5762 5759 5756 5753 5749 5745 5741 5737 5733 5729 5724 5720 5716 5712 5709 5705 5701 5698 5694 5690 5687 5684 5681 5678 5675 5672 5670 5667 5665 5662 5660 5658 5656 5653 5652 5650 5648 5646 5645 5643
5763 5760 5758 5755 5752 5749 5746 5742 5739 5735 5731 5727 5723 5718 5714 5710 5707 5703 5699 5695 5692 5688 5684 5681 5678 5675 5672 5669 5666 5664 5661 5658 5656 5653 5651 5649 5647 5645 5643 5641 5639 5638 5637
5756 5753 5751 5748 5745 5742 5739 5735 5732 5728 5724 5721 5717 5713 5708 5705 5701 5697 5693 5689 5686 5682 5678 5675 5672 5669 5666 5663 5660 5657 5654 5652 5649 5647 5644 5642 5640 5638 5636 5634 5633 5631 5630
5749 5746 5744 5741 5738 5735 5732 5729 5725 5722 5718 5714 5710 5706 5702 5698 5695 5691 5687 5683 5680 5676 5672 5669 5666 5663 5660 5657 5654 5651 5648 5645 5642 5640 5638 5635 5633 5632 5630 5628 5626 5625 5624
5742 5739 5736 5734 5731 5728 5725 5722 5718 5715 5711 5708 5704 5700 5696 5692 5688 5685 5681 5677 5673 5670 5666 5663 5659 5656 5653 5650 5647 5644 5641 5638 5636 5633 5631 5629 5627 5625 5624 5622 5620 5618 5617
5734 5732 5729 5726 5724 5721 5717 5714 5711 5708 5705 5701 5697 5693 5689 5686 5682 5678 5674 5670 5666 5663 5659 5656 5652 5649 5646 5643 5640 5637 5634 5632 5629 5627 5625 5623 5621 5619 5617 5615 5614 5612 5611
5727 5725 5722 5719 5716 5714 5711 5707 5704 5701 5698 5695 5691 5687 5683 5679 5675 5671 5667 5663 5660 5656 5652 5649 5645 5642 5639 5635 5632 5630 5627 5625 5623 5621 5619 5617 5615 5613 5611 5609 5607 5606 5605
5720 5718 5715 5713 5710 5707 5704 5701 5698 5694 5691 5688 5684 5681 5677 5673 5669 5665 5661 5657 5653 5649 5646 5642 5638 5635 5631 5628 5625 5623 5620 5618 5616 5614 5612 5610 5608 5606 5604 5603 5601 5600 5599
5714 5711 5709 5706 5703 5701 5698 5694 5691 5688 5684 5681 5678 5674 5670 5666 5662 5658 5654 5651 5647 5643 5639 5636 5632 5628 5625 5622 5619 5616 5614 5612 5610 5608 5606 5604 5602 5600 5598 5597 5595 5594 5593